Back to catalog

DELTA 1 R/B

AlivePO
NORAD 7616·ROCKET BODY·🇺🇸 United States

Launched Jan 22, 1975 from Vandenberg Space Force Base

Loading…

Next Passes (next 24 hours)

TLE

FreshSource: Space-Track

Epoch: Sep 14, 2026, 13:16 UTC

1 07616U 75004B   26257.55309551  .00000223  00000-0  13497-3 0  9995
2 07616  97.7313 299.3660 0184245 251.6944 106.4107 14.06126961632952

Track DELTA 1 R/B in real time with AllMySat

Download on the App Store